| time (UTC) | temp F | wind direction | speed knots | gust knots | rain 1hr in | rain 24hr in | rain mn in | humidity % | barometer mb |
| 20260505121514 | 53 | 5 | 5.2 | 8.7 | 0.00 | 0.17 | 0.02 | 99 | 1008.7 |
| 20260505120006 | 53 | 355 | 6.1 | 10.4 | 0.00 | 0.17 | 0.02 | 99 | 1008.7 |
| 20260505114559 | 53 | 355 | 6.1 | 8.7 | 0.01 | 0.17 | 0.02 | 99 | 1008.8 |
| 20260505113035 | 53 | 350 | 6.1 | 10.4 | 0.01 | 0.17 | 0.02 | 99 | 1008.9 |
| 20260505111528 | 53 | 338 | 6.1 | 10.4 | 0.02 | 0.17 | 0.02 | 98 | 1008.9 |
| 20260505101508 | 53 | 355 | 4.3 | 8.7 | 0.00 | 0.15 | 0.01 | 98 | 1009.3 |
| 20260505100035 | 52 | 28 | 4.3 | 7.8 | 0.00 | 0.15 | 0.01 | 99 | 1009.3 |
| 20260505094524 | 52 | 20 | 7.0 | 9.6 | 0.00 | 0.15 | 0.01 | 99 | 1009.2 |
| 20260505093027 | 52 | 31 | 5.2 | 9.6 | 0.00 | 0.15 | 0.01 | 99 | 1009.3 |
| 20260505091518 | 52 | 26 | 4.3 | 7.8 | 0.00 | 0.15 | 0.01 | 98 | 1009.3 |
| 20260505090010 | 52 | 11 | 6.1 | 13.0 | 0.00 | 0.15 | 0.01 | 98 | 1009.2 |
| 20260505084552 | 52 | 5 | 6.1 | 9.6 | 0.00 | 0.15 | 0.01 | 98 | 1009.2 |
| 20260505083029 | 53 | 32 | 5.2 | 9.6 | 0.00 | 0.15 | 0.01 | 99 | 1009.2 |
| 20260505081516 | 52 | 355 | 7.0 | 11.3 | 0.00 | 0.15 | 0.01 | 98 | 1009.2 |
| 20260505080048 | 52 | 355 | 5.2 | 10.4 | 0.00 | 0.15 | 0.01 | 98 | 1009.2 |
| 20260505074517 | 52 | 17 | 5.2 | 7.8 | 0.00 | 0.15 | 0.01 | 98 | 1009.4 |
| 20260505073111 | 52 | 355 | 4.3 | 7.8 | 0.00 | 0.15 | 0.01 | 98 | 1009.6 |
| 20260505071546 | 52 | 11 | 4.3 | 9.6 | 0.00 | 0.15 | 0.01 | 98 | 1009.5 |
| 20260505070021 | 53 | 5 | 4.3 | 7.8 | 0.00 | 0.15 | 0.01 | 98 | 1009.5 |
| 20260505064556 | 53 | 5 | 3.5 | 7.8 | 0.01 | 0.15 | 0.01 | 98 | 1009.8 |
| 20260505063027 | 53 | 16 | 3.5 | 7.0 | 0.01 | 0.15 | 0.01 | 98 | 1009.7 |
| 20260505061600 | 53 | 360 | 6.1 | 8.7 | 0.01 | 0.15 | 0.01 | 98 | 1009.8 |
| 20260505060036 | 53 | 349 | 1.7 | 6.1 | 0.01 | 0.15 | 0.01 | 98 | 1009.7 |
| 20260505054520 | 53 | 13 | 0.9 | 4.3 | 0.00 | 0.14 | 0.00 | 98 | 1009.7 |
| 20260505053049 | 53 | 321 | 0.9 | 5.2 | 0.00 | 0.14 | 0.00 | 98 | 1009.7 |
| 20260505051518 | 53 | 338 | 0.9 | 4.3 | 0.00 | 0.14 | 0.00 | 98 | 1009.7 |
| 20260505041546 | 53 | 271 | 0.0 | 4.3 | 0.00 | 0.14 | 0.00 | 98 | 1009.8 |
| 20260505040016 | 53 | 243 | 0.9 | 4.3 | 0.00 | 0.15 | 0.00 | 98 | 1009.9 |
| 20260505034556 | 53 | 288 | 0.9 | 3.5 | 0.00 | 0.15 | 0.00 | 98 | 1010.0 |
| 20260505033042 | 53 | 265 | 0.9 | 3.5 | 0.00 | 0.15 | 0.00 | 98 | 1010.2 |
| 20260505031515 | 54 | 10 | 0.0 | 2.6 | 0.00 | 0.15 | 0.00 | 98 | 1010.3 |
| 20260505024541 | 54 | 350 | 0.0 | 1.7 | 0.00 | 0.15 | 0.00 | 98 | 1010.5 |
| 20260505023011 | 54 | 336 | 2.6 | 6.1 | 0.00 | 0.15 | 0.00 | 98 | 1010.6 |
| 20260505021549 | 54 | 336 | 0.9 | 1.7 | 0.00 | 0.15 | 0.00 | 98 | 1010.5 |
| 20260505020028 | 53 | 210 | 0.0 | 1.7 | 0.00 | 0.15 | 0.00 | 98 | 1010.5 |
| 20260505014519 | 53 | 210 | 0.0 | 0.9 | 0.00 | 0.15 | 0.00 | 98 | 1010.4 |
| 20260505013054 | 53 | 210 | 0.9 | 1.7 | 0.00 | 0.15 | 0.00 | 97 | 1010.4 |
| 20260505011530 | 52 | 210 | 0.9 | 1.7 | 0.00 | 0.15 | 0.00 | 97 | 1010.4 |
| 20260505010002 | 52 | 210 | 0.9 | 1.7 | 0.00 | 0.15 | 0.00 | 97 | 1010.4 |
| 20260505004546 | 52 | 210 | 0.0 | 0.0 | 0.00 | 0.15 | 0.00 | 97 | 1010.6 |
| 20260505003017 | 52 | 210 | 0.0 | 0.0 | 0.00 | 0.15 | 0.00 | 96 | 1010.8 |
| 20260505001507 | 52 | 210 | 0.0 | 0.0 | 0.00 | 0.15 | 0.00 | 96 | 1010.8 |
| 20260505000046 | 52 | 210 | 0.0 | 1.7 | 0.00 | 0.15 | 0.00 | 97 | 1011.0 |
| 20260504234528 | 52 | 210 | 0.0 | 0.9 | 0.00 | 0.15 | 0.00 | 97 | 1011.1 |
| 20260504233014 | 52 | 210 | 0.0 | 1.7 | 0.00 | 0.15 | 0.00 | 97 | 1011.2 |
| 20260504231554 | 52 | 210 | 0.0 | 1.7 | 0.00 | 0.15 | 0.00 | 97 | 1011.3 |
| 20260504230027 | 52 | 210 | 0.0 | 0.9 | 0.00 | 0.15 | 0.00 | 96 | 1011.4 |
| 20260504224515 | 51 | 210 | 0.9 | 1.7 | 0.00 | 0.15 | 0.15 | 96 | 1011.5 |
| 20260504223007 | 52 | 152 | 0.9 | 1.7 | 0.00 | 0.15 | 0.15 | 96 | 1011.6 |
| 20260504221542 | 52 | 152 | 0.0 | 0.9 | 0.00 | 0.15 | 0.15 | 96 | 1011.6 |
| 20260504220026 | 53 | 152 | 0.0 | 1.7 | 0.00 | 0.15 | 0.15 | 96 | 1011.8 |
| 20260504214549 | 53 | 152 | 0.0 | 0.9 | 0.00 | 0.15 | 0.15 | 96 | 1011.9 |
| 20260504213008 | 53 | 152 | 0.0 | 0.9 | 0.00 | 0.15 | 0.15 | 96 | 1012.1 |
| 20260504211549 | 54 | 152 | 0.0 | 0.9 | 0.00 | 0.15 | 0.15 | 95 | 1012.1 |
| 20260504210054 | 54 | 152 | 0.0 | 0.0 | 0.00 | 0.15 | 0.15 | 96 | 1012.3 |
| 20260504204549 | 54 | 152 | 0.0 | 1.7 | 0.00 | 0.17 | 0.15 | 96 | 1012.3 |
| 20260504203012 | 54 | 152 | 0.0 | 0.9 | 0.00 | 0.17 | 0.15 | 96 | 1012.4 |
| 20260504201527 | 54 | 152 | 0.0 | 0.0 | 0.00 | 0.17 | 0.15 | 95 | 1012.3 |
| 20260504200055 | 55 | 152 | 0.0 | 0.9 | 0.00 | 0.17 | 0.15 | 95 | 1012.2 |
| 20260504194533 | 55 | 152 | 0.0 | 0.9 | 0.00 | 0.17 | 0.15 | 95 | 1012.0 |
| 20260504193056 | 54 | 152 | 0.0 | 0.9 | 0.00 | 0.17 | 0.15 | 95 | 1011.9 |
| 20260504191523 | 55 | 152 | 0.0 | 0.9 | 0.00 | 0.17 | 0.15 | 94 | 1011.8 |
| 20260504190100 | 55 | 152 | 0.0 | 0.9 | 0.00 | 0.17 | 0.15 | 94 | 1011.8 |
| 20260504184526 | 55 | 152 | 0.0 | 0.0 | 0.00 | 0.46 | 0.15 | 94 | 1011.6 |
| 20260504183003 | 56 | 152 | 0.0 | 1.7 | 0.00 | 0.46 | 0.15 | 94 | 1011.5 |
| 20260504181531 | 56 | 152 | 0.0 | 0.9 | 0.02 | 0.46 | 0.15 | 93 | 1011.4 |
| 20260504180100 | 56 | 152 | 0.0 | 1.7 | 0.02 | 0.46 | 0.15 | 93 | 1011.4 |
| 20260504174526 | 57 | 152 | 0.0 | 1.7 | 0.02 | 0.46 | 0.15 | 93 | 1011.7 |
| 20260504173101 | 57 | 152 | 0.0 | 1.7 | 0.02 | 0.46 | 0.15 | 92 | 1011.8 |
| 20260504171538 | 57 | 104 | 0.0 | 1.7 | 0.01 | 0.45 | 0.13 | 91 | 1011.9 |